Simultaneous Nadir Overpasses (SNOs) Predictions

Prediction of SNOs between GOES-17 and LANDSAT-8 Satellite Orbit:

Table of predicted SNOs for the next 14.0 days since TLE Epoch: 10/29/2022
Index Date Time (GOES-17) GOES-17 Lat,Lon LANDSAT-8 Lat,Lon Distance(km) Time Diff (sec)
1 10/30/2022 19:23:09 -0.05,-137.32 -0.09,-137.25 9.60 80
2 11/01/2022 19:10:57 -0.05,-137.31 -0.67,-134.28 344.17 80
3 11/02/2022 07:32:21 0.04,-137.31 -0.44,-139.47 246.41 80
4 11/04/2022 07:17:30 0.04,-137.29 0.21,-136.52 88.37 80
5 11/04/2022 19:38:44 -0.04,-137.29 0.92,-141.67 498.52 80
6 11/06/2022 07:05:18 0.04,-137.28 0.82,-133.55 422.95 80
7 11/06/2022 19:26:33 -0.04,-137.27 0.25,-138.72 164.02 80
8 11/08/2022 19:17:02 -0.04,-137.25 -0.37,-135.76 170.03 80
9 11/09/2022 07:38:25 0.04,-137.24 -0.73,-140.95 420.68 80
10 11/11/2022 07:26:12 0.03,-137.21 -0.14,-137.98 87.42 80
